Date,TemperatureHighF,TemperatureAvgF,TemperatureLowF,DewpointHighF,DewpointAvgF,DewpointLowF,HumidityHigh,HumidityAvg,HumidityLow,PressureMaxIn,PressureMinIn,WindSpeedMaxMPH,WindSpeedAvgMPH,GustSpeedMaxMPH,PrecipitationSumIn
2013-2-9,51.8,38.9,32.9,27.5,25.6,22.3,74,60,34,29.62,29.54,2,0,2,0.00
2013-2-10,58.0,49.2,30.9,47.5,32.9,21.8,94,58,29,29.73,29.48,9,2,14,0.30
2013-2-11,62.6,57.6,49.2,59.3,55.0,47.5,96,91,84,29.48,29.23,13,5,21,0.10
2013-2-12,62.7,52.7,43.6,50.6,40.7,29.4,96,68,31,29.40,29.21,6,1,12,0.07
2013-2-13,49.2,46.3,39.9,47.0,44.4,37.1,97,93,82,29.25,28.95,11,2,17,0.09
2013-2-14,42.9,34.3,30.3,37.6,32.6,29.0,96,94,78,29.35,29.17,4,0,8,0.00
2013-2-15,63.5,46.8,30.9,41.9,34.2,29.3,96,67,30,29.38,29.22,10,2,15,0.00
2013-2-16,47.3,36.4,27.9,38.0,32.5,24.3,94,86,70,29.27,29.12,9,1,14,0.16
2013-2-17,43.4,31.3,23.4,24.4,18.0,10.7,87,60,29,29.54,29.27,15,3,22,0.00
2013-2-18,55.7,37.8,20.1,29.4,23.2,16.3,87,60,33,29.66,29.50,9,2,14,0.00
2013-2-19,47.9,40.8,32.5,44.9,36.3,25.4,96,84,61,29.51,29.18,12,2,22,0.21
2013-2-20,54.9,40.9,27.3,32.0,22.8,16.5,87,52,24,29.40,29.30,10,2,13,0.00
2013-2-21,58.1,42.2,27.1,36.5,23.7,15.4,78,50,27,29.53,29.38,6,1,9,0.00
2013-2-22,45.2,38.2,36.2,36.6,35.5,30.5,96,91,59,29.59,29.39,6,1,8,0.31
2013-2-23,43.2,39.9,36.3,42.1,38.8,35.3,97,96,95,29.41,29.13,4,1,7,0.56
2013-2-24,66.8,50.3,40.0,46.8,39.2,27.6,97,71,26,29.32,29.12,11,2,15,0.00
2013-2-25,42.4,39.9,37.6,31.4,28.5,26.5,74,64,56,29.48,29.31,6,2,10,0.00
2013-2-26,48.4,40.1,33.7,47.6,37.6,26.9,97,91,62,29.36,28.86,6,2,12,0.80
2013-2-27,57.9,46.7,34.3,41.7,38.4,32.9,97,75,50,29.11,28.95,12,3,20,0.00
2013-2-28,52.9,42.2,32.7,35.5,30.4,26.6,92,65,41,29.18,29.02,11,2,20,0.00
2013-3-1,49.7,39.4,28.5,33.9,29.5,25.2,88,69,48,29.22,29.15,11,2,16,0.00
2013-3-2,46.7,38.4,30.0,37.0,32.6,24.8,94,80,66,29.23,29.12,9,1,15,0.09
2013-3-3,48.6,35.2,24.4,26.5,22.2,18.5,89,62,36,29.29,29.17,12,2,18,0.00
2013-3-4,55.2,38.3,23.0,29.6,20.6,15.9,82,54,23,29.42,29.29,11,2,15,0.00
2013-3-5,56.3,46.5,35.6,47.9,38.7,25.9,96,75,55,29.35,28.89,10,2,14,0.41
2013-3-6,51.7,42.5,35.0,45.7,28.8,23.0,96,60,39,29.40,28.89,17,6,30,0.01
2013-3-7,56.7,41.3,28.6,33.3,28.1,24.8,87,62,37,29.54,29.40,10,2,15,0.00
2013-3-8,58.4,42.9,29.0,29.8,26.0,23.2,79,54,29,29.61,29.48,11,2,16,0.00
2013-3-9,64.8,47.4,32.3,36.1,31.3,25.8,79,56,33,29.63,29.51,6,1,10,0.00
2013-3-10,68.0,51.1,34.8,40.9,36.2,31.5,89,61,33,29.59,29.46,8,1,12,0.00
2013-3-11,69.7,54.3,39.4,54.7,43.6,27.1,90,68,50,29.50,29.16,12,2,21,0.06
2013-3-12,71.3,60.8,48.4,59.9,50.6,31.7,96,73,34,29.27,29.06,12,3,22,0.89
2013-3-13,60.7,46.6,35.5,36.8,28.3,18.5,87,53,27,29.43,29.26,14,3,22,0.00
2013-3-14,55.4,40.9,29.0,26.8,20.2,16.9,66,45,24,29.56,29.43,11,2,18,0.00
2013-3-15,65.7,47.3,28.5,41.5,30.4,21.3,83,55,33,29.49,29.20,11,2,21,0.00
2013-3-16,79.8,67.1,57.7,49.2,43.9,39.9,58,45,31,29.85,29.02,17,6,29,0.00
2013-3-17,78.0,61.1,47.6,55.0,45.3,40.0,77,58,38,30.09,29.85,7,2,15,0.00
2013-3-18,47.6,43.1,39.9,42.4,40.5,38.4,96,91,76,30.13,29.85,10,2,17,0.64
2013-3-19,69.3,52.7,41.1,47.6,34.7,18.4,97,60,18,30.03,29.83,11,3,18,0.01
2013-3-20,57.4,48.3,41.5,28.3,17.9,10.4,55,31,20,30.10,29.77,9,2,13,0.00
2013-3-21,49.4,40.3,30.8,28.7,15.7,8.0,66,38,21,29.96,29.76,16,4,24,0.00
2013-3-22,53.2,38.7,23.9,26.9,18.5,12.4,74,46,25,30.07,29.95,10,2,15,0.00
2013-3-23,51.9,43.4,38.2,44.0,36.9,26.0,94,79,45,30.05,29.89,6,0,8,0.04
2013-3-24,42.5,40.5,38.2,41.2,39.1,36.8,96,95,92,29.92,29.55,8,1,13,0.84
2013-3-25,49.7,42.1,38.0,39.6,30.4,20.0,97,68,36,29.87,29.55,18,5,28,0.04
2013-3-26,49.4,40.4,30.6,29.3,25.7,23.3,77,57,42,30.15,29.87,12,4,20,0.00
2013-3-27,56.0,42.1,29.5,29.0,24.7,20.3,80,53,29,30.24,30.15,12,2,18,0.00
2013-3-28,58.9,43.4,30.9,26.8,23.5,20.3,73,48,25,30.28,30.17,13,2,18,0.00
2013-3-29,64.3,47.8,29.4,37.3,27.5,24.3,83,50,24,30.33,30.16,9,2,16,0.00
2013-3-30,66.5,54.9,46.4,49.5,44.7,37.3,96,71,43,30.21,30.06,6,1,9,0.22
2013-3-31,70.7,59.3,49.5,57.6,52.0,45.6,96,78,55,30.06,29.80,14,3,22,0.37
2013-4-1,75.9,63.0,53.3,56.2,47.0,36.3,97,62,26,29.95,29.83,12,2,17,0.05
2013-4-2,65.6,53.0,39.1,41.3,35.2,28.3,85,54,28,30.15,29.95,10,2,15,0.00
2013-4-3,64.1,53.5,44.1,34.8,25.7,19.3,58,35,24,30.26,30.10,7,2,12,0.00
2013-4-4,49.0,42.2,37.7,38.5,34.2,24.4,95,76,43,30.26,29.94,6,2,16,0.77
2013-4-5,66.2,49.0,37.3,51.2,41.8,36.0,96,79,46,30.03,29.90,7,2,10,0.01
2013-4-6,70.1,54.4,38.4,42.6,38.4,34.8,90,59,30,30.22,30.03,6,1,12,0.00
2013-4-7,73.0,57.4,39.4,50.7,43.4,35.1,87,62,35,30.26,30.09,10,2,16,0.00
2013-4-8,79.2,66.4,52.8,56.8,53.2,49.9,93,65,41,30.17,30.06,11,3,18,0.00
2013-4-9,84.8,70.5,55.3,61.0,56.7,52.4,91,64,40,30.19,30.08,10,2,17,0.00
2013-4-10,87.4,73.2,60.9,62.7,59.2,56.3,90,64,39,30.12,29.96,10,3,16,0.00
2013-4-11,81.8,71.3,62.0,66.8,62.0,56.3,92,74,52,29.99,29.77,10,3,18,0.00
2013-4-12,83.2,71.6,61.4,68.1,58.5,40.5,96,68,28,29.83,29.65,15,4,26,0.28
2013-4-13,78.8,61.7,45.5,48.7,43.2,38.6,88,55,26,30.02,29.83,9,1,12,0.00
2013-4-14,78.0,62.0,43.8,55.1,46.2,40.9,91,60,31,30.09,29.99,6,1,10,0.00
2013-4-15,72.6,65.0,58.8,61.0,58.1,52.9,92,79,65,30.19,29.98,5,0,8,0.00
2013-4-16,78.8,66.7,57.4,64.2,59.7,55.7,95,80,54,30.29,30.18,6,0,7,0.00
2013-4-17,88.6,70.9,56.6,65.8,60.6,54.9,96,73,39,30.25,30.09,8,1,14,0.00
2013-4-18,83.0,71.2,62.3,64.9,61.7,59.3,92,73,48,30.17,30.00,6,1,15,0.00
2013-4-19,81.4,68.9,56.0,69.4,63.6,51.9,94,84,62,30.01,29.76,14,4,27,0.39
2013-4-20,66.2,53.9,42.1,52.1,39.9,31.5,90,62,30,30.25,29.89,8,1,13,0.00
2013-4-21,67.0,52.5,39.3,47.8,41.6,37.3,93,69,42,30.43,30.25,5,1,10,0.00
2013-4-22,67.3,53.1,40.4,42.6,36.6,29.6,84,58,27,30.41,30.21,6,1,12,0.00
2013-4-23,70.3,56.9,50.9,55.4,48.6,41.6,92,74,56,30.26,30.11,5,0,8,0.00
2013-4-24,76.8,62.7,50.4,59.6,54.2,48.4,95,76,49,30.15,30.00,12,2,20,0.00
2013-4-25,74.5,61.8,48.4,58.6,46.5,34.1,87,60,25,30.26,30.04,8,1,13,0.00
2013-4-26,74.3,59.4,42.8,48.8,41.1,34.6,84,54,26,30.42,30.26,6,1,9,0.01
2013-4-27,66.2,58.4,53.7,58.3,51.9,46.8,95,79,57,30.36,30.26,6,0,9,0.09
2013-4-28,65.0,60.6,57.5,63.5,58.9,56.4,96,94,90,30.33,30.17,9,3,15,1.44
2013-4-29,68.5,60.8,58.0,64.2,59.6,57.2,97,96,83,30.18,30.13,7,1,10,0.16
2013-5-1,67.7,63.1,58.7,60.2,57.9,56.6,94,83,74,30.38,30.32,8,3,15,0.00
2013-5-2,65.6,60.6,58.0,60.5,58.3,56.6,96,92,83,30.40,30.32,9,3,14,0.04
2013-5-3,70.4,60.4,53.6,58.2,54.5,45.1,94,82,58,30.33,30.22,18,4,25,0.00
2013-5-4,65.7,56.4,49.5,54.4,48.9,43.1,86,76,63,30.25,30.10,13,5,22,0.00
2013-5-9,84.6,73.5,58.3,63.2,57.6,53.3,93,62,36,30.21,30.15,8,1,12,0.00
2013-5-10,84.5,69.6,52.8,66.2,59.0,51.1,96,73,42,30.21,30.09,12,2,18,0.00
2013-5-11,80.5,71.8,62.8,66.2,62.3,58.3,90,73,55,30.12,29.97,11,4,17,0.00
2013-5-12,79.0,67.6,51.6,64.5,53.6,40.8,95,65,27,30.16,29.97,14,2,20,0.00
2013-5-13,72.0,56.4,42.4,46.4,40.6,33.0,94,62,25,30.30,30.16,14,2,20,0.00
2013-5-14,73.5,56.7,37.0,49.9,41.1,33.7,95,62,27,30.39,30.23,10,2,14,0.00
2013-5-15,72.2,56.2,52.1,57.9,48.0,44.8,80,74,61,30.23,30.19,8,2,14,0.00
2013-5-18,80.4,73.8,67.1,68.3,65.9,64.4,93,77,60,30.27,30.21,7,1,10,0.00
2013-5-19,73.2,69.0,66.8,71.2,67.0,64.8,96,93,89,30.26,30.18,9,2,12,1.56
2013-5-22,85.0,80.5,73.4,69.2,66.9,63.4,81,64,53,30.17,30.03,9,4,13,0.01
2013-5-23,82.0,75.2,66.4,71.7,69.1,64.7,96,82,63,30.08,29.96,7,1,10,0.99
2013-5-24,75.9,66.6,49.5,65.5,54.4,42.0,97,70,33,30.33,29.99,18,4,26,0.00
2013-5-25,78.9,59.6,39.8,56.8,44.9,38.2,96,65,26,30.45,30.28,8,1,12,0.00
2013-5-26,78.3,63.1,51.6,60.1,50.2,43.1,95,67,34,30.41,30.29,10,1,12,0.00
2013-5-27,85.5,68.3,49.2,68.1,55.9,47.5,96,69,36,30.40,30.27,8,2,12,0.00
2013-5-28,84.0,73.1,60.0,67.4,63.4,57.8,95,73,52,30.38,30.28,8,2,12,0.00
2013-5-29,86.0,72.6,56.6,66.7,62.1,54.8,96,72,46,30.39,30.29,8,2,12,0.00
2013-5-30,87.3,73.4,57.5,67.9,62.6,55.6,96,72,42,30.42,30.29,8,2,10,0.00
2013-5-31,89.0,76.2,63.5,71.2,66.8,61.3,96,75,48,30.37,30.23,10,2,14,0.00
2013-6-1,87.0,76.0,64.1,68.5,65.9,62.2,97,73,47,30.28,30.16,11,3,15,0.00
2013-6-2,87.6,76.5,68.5,69.9,67.6,64.7,95,76,49,30.22,30.03,12,4,18,0.26
2013-6-3,87.3,75.6,68.6,73.7,70.4,66.8,97,85,57,30.09,29.98,9,2,12,0.01
2013-6-4,87.0,75.3,65.3,71.9,67.8,63.8,97,79,52,30.20,30.06,9,2,12,0.00
2013-6-5,82.5,72.9,68.6,72.3,69.3,66.0,96,89,69,30.22,30.12,17,3,27,0.15
2013-6-6,76.3,71.8,69.0,73.7,70.2,67.8,97,95,89,30.12,29.94,11,3,15,0.92
2013-6-7,80.6,71.5,66.5,73.0,69.2,65.3,97,93,76,29.98,29.71,16,3,30,0.60
2013-6-8,84.5,73.4,66.2,72.6,68.4,65.3,98,86,60,30.22,29.98,9,2,16,0.00
2013-6-9,85.9,72.9,65.2,74.1,68.7,63.8,98,88,59,30.28,30.20,8,1,14,0.07
2013-6-10,82.8,73.7,70.1,75.1,71.1,68.4,96,92,73,30.24,30.07,15,4,22,0.33
2013-6-11,89.2,76.9,67.1,73.1,69.4,63.6,96,80,46,30.13,30.07,11,2,17,0.00
2013-6-12,94.2,79.0,63.8,78.7,70.9,62.0,97,78,49,30.15,30.03,9,1,13,0.00
2013-6-13,92.8,81.2,70.3,75.8,71.4,67.2,96,75,48,30.03,29.81,15,4,25,0.00
2013-6-14,85.3,74.3,60.9,67.9,62.9,57.1,96,71,40,30.16,29.90,13,2,21,0.00
2013-6-15,88.1,72.0,55.9,69.9,61.4,54.1,97,73,39,30.27,30.16,7,1,12,0.00
2013-6-16,86.5,74.2,60.0,72.1,66.0,57.3,96,77,52,30.30,30.17,12,2,17,0.00
2013-6-17,87.5,75.8,68.1,74.4,69.0,63.4,96,80,58,30.20,30.07,14,2,21,0.81
2013-6-18,84.5,74.8,69.6,74.6,70.7,68.4,96,88,69,30.12,29.94,13,3,21,0.08
2013-6-19,84.5,74.9,68.0,72.1,69.3,65.3,96,84,56,30.23,30.03,9,1,13,0.01
2013-6-20,85.0,74.0,63.8,71.0,66.0,62.4,97,78,53,30.34,30.23,9,2,14,0.00
2013-6-21,84.7,72.5,60.3,66.4,62.5,58.1,97,74,45,30.38,30.30,9,2,14,0.00
2013-6-22,86.5,73.3,61.6,73.1,67.2,59.6,97,82,59,30.33,30.24,8,1,14,0.00
2013-6-23,84.4,76.0,66.2,75.3,71.3,64.9,96,86,67,30.34,30.26,9,1,12,0.03
2013-6-24,82.8,73.9,70.3,76.7,71.2,68.5,97,91,76,30.36,30.28,12,1,20,0.23
2013-7-2,76.8,72.9,71.5,73.2,71.5,70.0,97,95,87,30.28,30.23,12,3,16,1.24
2013-7-3,81.4,75.1,73.2,76.0,73.3,72.2,97,94,80,30.35,30.26,9,2,18,0.15
2013-7-4,86.7,77.1,72.8,76.3,72.9,69.8,97,88,65,30.38,30.30,14,3,22,0.04
2013-7-5,84.3,75.4,72.0,77.8,73.1,70.8,98,93,75,30.39,30.30,11,1,16,0.41
2013-7-6,85.4,75.6,71.3,77.7,73.0,70.6,98,92,70,30.37,30.25,10,1,20,0.20
2013-7-7,86.5,78.0,72.6,77.9,74.1,71.6,98,89,69,30.33,30.20,8,2,14,0.06
2013-7-8,88.1,78.2,72.6,76.4,73.8,71.1,97,87,65,30.32,30.25,11,1,14,0.01
2013-7-9,87.3,77.6,72.9,78.5,73.6,70.1,98,88,68,30.31,30.21,16,2,21,0.04
2013-7-10,87.0,77.4,72.0,76.6,73.2,70.4,97,88,66,30.26,30.10,11,2,16,0.00
2013-7-11,85.0,74.5,69.8,77.1,72.0,68.8,97,92,74,30.12,30.01,12,2,18,1.47
2013-7-12,81.3,73.5,67.7,75.4,70.9,66.6,98,92,77,30.13,30.00,13,1,20,0.07
2013-7-13,83.5,73.9,68.2,76.4,71.8,67.3,98,93,78,30.23,30.12,8,1,13,0.31
2013-7-14,86.3,77.2,71.8,76.2,73.1,70.4,97,88,67,30.40,30.22,13,3,18,0.15
2013-7-15,89.9,77.5,71.0,78.1,73.3,69.9,98,88,61,30.44,30.36,18,1,30,0.28
2013-7-16,93.2,80.8,68.0,79.3,73.8,67.0,98,81,54,30.43,30.34,5,0,8,0.00
2013-7-17,91.7,78.4,71.0,81.3,74.3,69.5,98,88,66,30.36,30.25,8,1,14,0.00
2013-7-18,91.5,79.0,67.9,79.8,73.3,67.0,98,84,58,30.31,30.19,7,1,9,0.00
2013-7-19,89.7,80.2,72.1,77.2,73.6,70.2,97,82,55,30.26,30.12,8,2,12,0.00
2013-7-20,87.3,78.7,73.1,77.5,73.4,71.7,96,85,64,30.20,30.07,9,3,14,0.00
2013-7-21,88.5,77.4,72.4,77.2,73.4,71.0,96,88,68,30.16,30.05,8,2,12,0.05
2013-7-22,86.6,77.2,71.9,76.1,72.8,71.0,98,87,69,30.13,30.00,10,2,18,0.00
2013-7-23,90.3,80.1,72.2,76.9,73.2,70.3,96,81,57,30.02,29.91,12,3,20,0.00
2013-7-24,91.5,79.1,69.4,78.1,72.9,68.2,98,83,54,29.99,29.88,8,1,20,0.00
2013-7-25,85.5,75.0,68.5,74.5,70.2,67.2,97,86,66,30.16,29.93,7,1,14,0.00
2013-7-26,89.5,76.2,65.9,73.0,68.6,64.7,97,79,50,30.24,30.14,7,1,10,0.00
2013-7-27,83.2,74.5,71.4,77.1,71.9,69.8,96,92,74,30.18,30.06,12,2,20,0.37
2013-7-28,89.1,77.4,67.7,75.5,71.7,66.8,98,84,58,30.15,30.06,8,2,12,0.00
2013-7-29,90.3,77.8,70.1,77.0,72.2,68.6,97,84,60,30.29,30.14,6,1,9,0.00
2013-7-30,89.7,76.8,67.3,74.8,69.2,64.2,98,80,48,30.34,30.26,8,1,12,0.00
2013-7-31,83.3,74.4,68.5,74.7,70.4,67.0,97,88,70,30.28,30.13,10,1,16,0.28
2013-8-1,85.9,75.8,70.9,77.9,72.6,69.6,97,90,70,30.14,30.01,7,1,12,0.01
2013-8-2,89.8,78.4,70.8,79.4,73.8,69.6,98,87,62,30.17,30.05,6,1,8,0.00
2013-8-3,89.1,79.1,71.1,77.3,73.9,69.6,98,86,61,30.17,30.07,6,1,12,0.00
2013-8-4,89.0,77.3,67.8,74.8,70.1,65.6,98,81,53,30.15,30.06,8,1,14,0.00
2013-8-5,86.3,75.7,65.7,70.9,66.2,61.6,97,75,46,30.21,30.12,10,2,14,0.00
2013-8-6,73.0,68.8,65.1,69.8,66.3,62.6,97,92,77,30.22,30.11,8,1,13,2.84
2013-8-7,85.1,75.6,68.0,75.8,70.8,66.4,98,86,59,30.24,30.15,7,1,9,0.00
2013-8-8,89.9,77.6,67.4,78.0,72.0,66.2,98,84,56,30.21,30.13,6,1,9,0.00
2013-8-9,89.3,79.4,71.7,78.2,74.7,70.5,98,86,66,30.23,30.15,9,2,14,0.00
2013-8-10,91.8,80.9,72.1,79.4,74.7,70.9,97,83,60,30.27,30.17,9,2,16,0.00
2013-8-11,92.7,80.7,70.2,78.9,74.1,68.9,97,82,58,30.26,30.17,10,2,14,0.00
2013-8-12,94.5,81.6,70.4,80.1,74.3,69.2,97,81,53,30.21,30.08,8,1,12,0.11
2013-8-13,91.1,79.6,71.1,77.8,74.2,70.1,98,85,61,30.12,29.94,12,3,20,0.21
2013-8-14,82.0,72.1,66.7,71.7,68.1,63.6,98,88,63,30.20,29.99,8,1,12,0.00
2013-8-15,76.1,68.0,61.2,65.7,62.0,58.7,95,82,58,30.27,30.18,10,2,15,0.00
2013-8-16,66.4,62.9,58.9,64.4,61.5,57.8,97,95,91,30.28,30.20,6,1,12,0.55
2013-8-17,68.0,65.6,62.9,66.9,64.5,61.8,97,96,91,30.29,30.23,6,1,14,0.23
2013-8-18,87.3,74.4,66.8,75.9,70.3,65.9,98,88,59,30.34,30.25,5,0,7,0.02
2013-8-19,78.5,72.6,70.5,73.4,70.9,69.6,98,94,80,30.31,30.22,7,1,12,1.26
2013-8-20,84.7,75.3,69.5,76.7,72.4,68.5,98,91,75,30.32,30.23,5,0,7,0.02
2013-8-21,88.3,76.3,70.6,76.8,72.8,69.7,98,90,68,30.36,30.24,10,1,15,0.53
2013-8-22,91.5,78.4,67.1,78.9,72.8,66.2,98,84,56,30.31,30.14,10,1,12,0.00
2013-8-23,92.0,78.1,66.2,78.8,71.7,65.3,98,83,52,30.19,30.08,8,1,9,0.00
2013-8-24,84.0,73.3,62.5,70.9,66.3,61.0,95,80,52,30.41,30.18,9,2,15,0.00
2013-8-25,82.3,68.9,58.6,66.8,61.7,56.9,98,80,50,30.51,30.40,11,1,20,0.00
2013-8-26,83.3,67.4,52.7,68.0,59.1,51.6,98,79,36,30.45,30.26,6,1,10,0.01
2013-8-27,88.6,72.8,58.1,76.1,66.3,57.0,98,82,56,30.28,30.13,7,1,10,0.00
2013-8-28,89.2,77.4,66.2,77.7,71.7,65.0,98,84,59,30.15,30.07,6,1,9,0.00
2013-8-29,94.8,79.9,69.8,78.5,73.4,68.6,97,83,52,30.11,30.02,7,1,12,0.00
2013-8-30,89.6,77.0,67.9,73.4,69.3,65.8,96,79,50,30.19,30.08,7,1,11,0.00
2013-8-31,88.7,75.7,64.7,75.9,70.2,63.2,98,85,62,30.12,30.00,7,1,10,0.00
2013-9-1,90.0,78.2,70.3,77.9,72.9,68.8,98,85,61,30.07,29.95,10,2,16,0.01
2013-9-2,91.3,77.9,70.9,77.8,73.4,69.8,97,87,58,30.06,29.95,8,1,14,0.18
2013-9-3,90.3,78.2,70.1,77.5,72.8,68.2,98,85,58,30.09,29.96,8,1,12,0.00
2013-9-4,91.5,76.3,64.8,75.0,68.8,63.7,97,80,50,30.21,30.09,5,1,10,0.00
2013-9-5,91.5,76.0,63.7,74.9,68.7,62.6,98,81,47,30.24,30.17,6,1,8,0.00
2013-9-6,86.6,72.7,62.4,68.4,63.8,61.1,97,77,44,30.30,30.19,8,1,15,0.00
2013-9-7,87.3,71.7,59.3,70.3,63.9,57.9,97,79,47,30.26,30.12,6,1,9,0.00
2013-9-8,90.0,74.2,59.6,72.2,65.7,58.5,98,78,46,30.13,30.05,6,1,8,0.00
2013-9-9,90.7,75.7,62.3,71.5,66.5,61.1,98,77,44,30.27,30.12,9,1,13,0.00
2013-9-10,92.4,76.1,64.4,73.2,67.5,63.2,97,78,43,30.38,30.27,6,1,9,0.00
2013-9-11,90.7,74.8,60.9,73.5,66.3,59.8,97,78,44,30.35,30.22,7,1,10,0.00
2013-9-12,90.8,75.9,63.5,73.2,67.7,62.1,98,78,49,30.22,29.99,10,2,15,0.00
2013-9-13,88.9,76.0,66.2,70.6,64.7,56.3,97,72,38,30.02,29.91,8,2,12,0.00
2013-9-14,81.8,68.5,59.4,62.3,56.1,51.6,92,67,43,30.24,30.01,10,2,17,0.00
2013-9-15,87.1,70.7,58.2,68.4,62.5,55.9,94,77,48,30.33,30.22,9,1,14,0.00
2013-9-16,89.3,77.8,71.3,73.8,69.8,64.7,96,78,45,30.27,30.16,8,2,12,0.00
2013-9-17,80.2,70.1,59.3,65.7,59.6,54.3,87,71,45,30.42,30.27,13,2,18,0.00
2013-9-18,78.8,64.7,52.8,60.9,55.3,51.1,95,74,46,30.41,30.28,8,2,12,0.00
2013-9-19,81.5,65.9,52.7,66.6,58.7,51.1,96,80,52,30.32,30.21,7,0,10,0.00
2013-9-20,86.1,71.5,59.1,70.4,64.3,57.4,97,80,53,30.22,30.06,7,1,10,0.00
2013-9-21,79.2,72.1,65.2,71.5,67.7,63.6,96,87,69,30.08,29.79,10,2,17,1.13
2013-9-22,82.0,69.6,56.5,69.7,62.0,54.8,96,79,49,30.03,29.77,13,3,20,1.18
2013-9-23,77.0,63.4,54.3,63.7,56.9,52.9,97,82,54,30.19,30.03,7,1,10,0.01
2013-9-24,80.2,63.6,50.5,65.8,56.9,49.3,97,81,50,30.21,30.07,8,1,12,0.00
2013-9-25,71.7,64.0,58.3,65.6,61.0,56.6,96,90,65,30.07,29.99,8,1,12,0.12
2013-9-26,79.3,67.2,56.0,64.7,60.6,54.5,97,82,50,30.14,30.00,9,1,13,0.05
2013-9-27,77.5,62.7,50.2,61.6,55.6,49.1,98,80,50,30.29,30.14,11,2,17,0.00
2013-9-28,77.0,61.4,49.6,58.8,53.6,48.5,97,78,47,30.36,30.27,11,2,20,0.01
2013-9-29,74.9,60.8,50.8,60.1,54.4,49.1,97,82,50,30.28,30.16,9,1,13,0.00
2013-9-30,79.0,61.6,49.9,60.9,54.5,48.8,97,81,41,30.22,30.13,6,1,9,0.00
2013-10-1,82.4,63.6,48.5,64.4,54.5,47.4,97,77,45,30.27,30.19,7,1,9,0.00
2013-10-2,82.4,72.9,60.9,60.8,60.1,59.1,95,69,47,30.24,30.20,1,1,2,0.00
2013-10-3,85.6,65.3,56.5,67.6,60.1,55.1,98,86,43,30.27,30.20,8,0,13,0.00
2013-10-4,87.7,70.0,56.9,69.1,62.0,55.6,98,79,43,30.28,30.19,6,1,7,0.00
2013-10-5,89.2,70.2,56.6,70.3,62.1,55.4,97,79,44,30.26,30.16,7,1,9,0.00
2013-10-6,85.7,70.6,56.5,70.2,64.2,55.1,98,82,50,30.19,30.05,9,2,12,0.00
2013-10-7,77.6,71.7,63.1,73.4,69.8,60.1,97,94,82,30.09,29.97,10,2,14,0.40
2013-10-8,64.0,58.6,54.1,61.1,53.9,50.4,96,85,70,30.29,30.08,11,4,20,0.39
2013-10-9,75.0,61.5,51.3,59.4,54.2,48.6,93,78,53,30.30,30.21,10,3,18,0.00
2013-10-10,71.4,62.0,50.9,63.8,57.0,49.1,95,84,67,30.22,30.09,11,2,16,0.00
2013-10-11,81.9,69.9,62.2,64.4,61.8,59.1,95,78,48,30.12,30.03,10,2,17,0.00
2013-10-12,79.4,66.4,55.3,65.9,61.1,54.2,97,84,57,30.20,30.09,5,1,8,0.00
2013-10-13,72.0,66.2,61.4,65.0,62.8,59.8,96,89,77,30.32,30.20,7,2,12,0.00
2013-10-14,67.8,63.9,61.6,63.6,61.5,59.6,96,92,85,30.34,30.27,8,2,14,0.02
2013-10-15,77.4,63.5,53.9,59.8,55.2,47.0,97,78,37,30.31,30.16,10,2,17,0.00
2013-10-16,78.6,63.5,52.2,65.6,58.4,50.8,97,85,56,30.20,30.08,6,0,8,0.00
2013-10-17,76.7,66.6,57.7,66.9,62.5,56.3,97,87,66,30.11,30.01,11,2,15,0.00
2013-10-18,68.5,65.5,62.2,66.1,61.6,58.1,97,88,74,30.15,30.02,8,2,13,0.02
2013-10-19,71.7,63.6,58.5,63.8,58.5,54.8,97,84,63,30.10,29.99,8,2,12,0.01
2013-10-20,70.0,56.5,45.2,55.3,48.4,43.2,97,77,46,30.22,30.05,8,1,13,0.00
2013-10-21,71.7,54.3,38.6,55.3,47.6,37.3,97,81,47,30.27,30.13,6,1,8,0.01
2013-10-22,66.2,59.5,53.0,61.5,56.8,51.3,96,91,81,30.16,29.95,5,1,10,0.00
2013-10-23,70.5,59.7,41.4,59.5,46.8,33.3,97,67,31,30.16,29.86,15,4,24,0.00
2013-10-24,63.6,47.1,31.3,44.3,36.1,29.5,96,70,37,30.32,30.16,11,1,15,0.00
2013-10-25,57.8,46.4,32.8,44.2,35.7,29.9,93,69,36,30.49,30.27,11,1,16,0.00
2013-10-26,61.5,42.9,27.2,37.6,31.7,25.3,95,70,33,30.48,30.23,11,1,15,0.00
2013-10-27,72.3,52.2,36.1,50.2,42.3,34.1,95,73,41,30.26,30.18,8,1,10,0.00
2013-10-28,69.6,54.4,45.2,59.9,51.3,43.1,97,90,68,30.39,30.24,5,0,6,0.05
2013-10-29,75.6,58.7,45.0,58.8,52.0,43.9,97,81,47,30.45,30.36,7,0,10,0.00
2013-10-30,67.9,51.7,46.5,58.5,49.1,45.1,97,91,70,30.43,30.37,6,0,8,0.00
2013-10-31,67.9,67.9,67.9,57.8,57.8,57.8,70,70,70,30.41,30.41,3,3,7,0.00
2013-11-1,67.9,61.7,58.7,62.1,59.3,57.4,97,92,70,30.41,29.84,9,2,14,0.37
2013-11-2,73.0,59.5,45.7,59.6,51.4,43.1,98,78,35,30.10,29.87,17,2,25,0.01
2013-11-3,65.5,48.4,37.3,46.4,39.3,35.9,97,76,35,30.45,30.10,13,1,18,0.00
2013-11-4,61.7,45.6,34.5,41.9,36.6,33.2,97,75,38,30.62,30.44,10,1,15,0.00
2013-11-5,60.9,48.0,33.2,50.0,42.8,31.7,96,83,64,30.62,30.52,9,2,14,0.00
2013-11-6,73.7,58.9,46.5,60.4,52.9,45.1,97,82,57,30.52,30.24,8,1,12,0.00
2013-11-7,73.2,59.7,46.5,62.5,52.4,34.9,98,78,46,30.24,30.07,11,2,17,0.00
2013-11-8,63.0,45.6,32.2,37.0,31.3,22.6,94,64,23,30.43,30.23,10,2,16,0.00
2013-11-9,62.1,44.8,28.6,41.3,32.8,26.9,95,68,32,30.50,30.33,8,1,12,0.00
2013-11-10,74.0,52.2,37.4,43.8,38.3,33.1,94,66,24,30.35,30.23,7,1,10,0.00
2013-11-11,64.3,46.5,33.4,39.3,33.6,29.4,93,66,28,30.46,30.28,9,1,13,0.00
2013-11-12,68.6,44.6,31.4,43.1,33.7,29.5,96,73,27,30.54,30.17,18,3,30,0.04
2013-11-13,48.1,32.9,22.5,30.6,24.7,20.5,95,75,34,30.67,30.54,9,1,17,0.07
2013-11-14,58.1,35.8,19.8,32.8,23.7,17.6,95,68,25,30.61,30.45,8,1,13,0.01
2013-11-15,62.3,46.9,27.9,51.8,40.8,25.1,93,81,54,30.46,30.31,7,0,9,0.00
2013-11-16,72.2,57.8,45.5,59.0,52.8,43.9,97,85,61,30.38,30.29,6,1,8,0.00
2013-11-17,71.3,60.9,49.1,65.7,58.2,48.0,98,91,71,30.33,30.06,11,2,14,0.08
2013-11-18,79.2,67.0,47.6,67.4,56.2,36.1,96,72,34,30.09,29.96,11,3,17,0.13
2013-11-19,60.2,48.0,36.6,38.3,31.1,25.3,84,55,27,30.38,30.09,11,2,17,0.00
2013-11-20,57.9,45.2,31.4,40.7,35.0,29.3,93,69,48,30.54,30.36,10,2,16,0.00
2013-11-21,63.6,52.4,45.1,52.0,44.6,36.6,88,75,61,30.58,30.47,8,2,14,0.00
2013-11-22,70.6,60.6,51.7,60.9,55.5,48.8,92,84,70,30.49,30.25,7,1,12,0.00
2013-11-23,64.2,57.1,38.6,60.0,52.0,30.7,97,84,64,30.29,30.17,8,2,13,0.04
2013-11-24,44.8,35.4,22.0,31.4,16.8,6.7,79,50,22,30.63,30.29,15,3,24,0.00
2013-11-25,46.2,32.6,18.8,19.2,13.6,8.0,83,50,22,30.69,30.43,8,1,12,0.00
2013-11-26,66.2,46.4,34.3,65.0,40.0,13.8,98,82,34,30.43,29.71,17,3,33,0.65
2013-11-27,47.6,41.2,26.4,46.8,38.0,22.4,97,89,65,30.33,29.65,15,4,24,0.12
2013-11-28,49.4,31.5,18.8,30.9,23.2,16.9,94,76,35,30.60,30.33,7,1,12,0.00
2013-11-29,56.0,35.6,22.1,34.2,27.5,20.4,96,76,37,30.69,30.58,7,1,10,0.01
2013-11-30,52.2,38.4,27.5,36.8,30.8,24.7,92,76,48,30.72,30.47,9,1,14,0.00
2013-12-1,59.6,45.4,34.4,48.6,39.0,31.9,92,79,53,30.48,30.14,5,0,7,0.00
2013-12-2,63.1,48.0,38.8,47.9,42.0,37.2,96,82,47,30.14,29.94,8,0,10,0.00
2013-12-3,59.5,52.0,42.4,53.1,47.8,40.8,96,86,66,30.10,30.00,7,1,12,0.02
2013-12-4,65.6,59.2,54.2,61.4,57.7,53.1,98,95,83,30.22,30.08,7,1,12,0.10
2013-12-5,68.3,63.2,58.0,65.5,61.9,57.3,98,96,87,30.26,30.17,14,3,21,0.04
2013-12-6,78.3,69.7,63.2,66.5,64.4,61.4,96,84,64,30.24,30.13,13,6,22,0.00
2013-12-7,68.4,55.9,45.8,65.0,52.3,40.7,96,88,80,30.52,30.16,12,4,22,0.03
2013-12-8,45.7,39.3,35.9,41.3,36.9,34.9,96,91,79,30.53,30.39,9,3,15,0.05
2013-12-9,49.4,42.9,36.0,48.8,42.2,35.0,98,97,96,30.39,30.18,7,1,8,0.16
2013-12-10,59.1,48.1,29.7,58.5,46.6,28.4,98,94,83,30.45,30.03,15,2,27,0.21
2013-12-11,53.7,36.0,23.2,37.9,28.7,21.7,97,79,36,30.57,30.41,6,0,8,0.00
2013-12-12,51.2,35.0,25.4,31.2,26.4,19.4,96,76,29,30.53,30.39,10,1,14,0.01
2013-12-13,54.5,36.2,21.0,35.2,27.2,19.3,95,75,33,30.50,30.38,9,1,12,0.00
2013-12-14,54.6,45.8,38.2,53.4,42.2,34.1,97,88,69,30.39,29.91,15,2,22,0.47
2013-12-15,57.3,46.0,30.5,47.6,41.5,28.7,98,86,58,30.24,29.86,10,2,15,0.04
2013-12-16,58.4,39.9,26.6,39.2,32.3,25.4,96,78,40,30.32,30.22,11,2,16,0.00
2013-12-17,64.8,50.7,35.3,39.5,34.8,31.3,86,57,33,30.27,30.09,15,5,25,0.00
2013-12-18,55.0,40.2,27.4,36.5,27.0,17.4,91,64,24,30.42,30.16,8,1,12,0.00
2013-12-19,62.2,40.1,24.2,37.0,28.1,22.5,95,70,24,30.47,30.36,11,1,16,0.00
2013-12-20,66.5,50.6,36.4,54.6,45.5,32.8,95,84,57,30.38,30.27,12,1,20,0.00
2013-12-21,73.9,61.1,44.0,66.4,56.5,42.6,97,86,70,30.28,30.16,13,4,22,0.00
2013-12-22,76.4,69.7,63.9,68.0,65.6,62.5,97,87,67,30.23,30.15,16,6,25,0.58
2013-12-23,67.7,61.4,49.6,66.4,60.2,46.5,98,96,87,30.27,30.14,11,3,18,0.58
2013-12-24,52.7,43.0,30.1,46.7,33.3,21.3,95,70,45,30.55,30.24,11,4,16,0.01
2013-12-25,43.8,32.3,21.9,26.0,19.5,12.3,87,61,32,30.65,30.50,8,2,12,0.00
2013-12-26,55.3,39.2,30.6,38.2,30.8,23.6,94,74,37,30.50,30.36,7,1,9,0.02
2013-12-27,53.4,36.6,26.8,34.4,27.5,23.0,93,74,34,30.58,30.46,6,1,8,0.01
2013-12-28,56.8,40.1,23.3,41.6,30.7,21.7,95,73,35,30.53,30.21,7,1,8,0.07
2013-12-29,60.2,48.0,41.3,59.6,46.5,40.2,98,95,90,30.22,29.89,13,3,21,1.06
2013-12-30,53.8,44.6,33.9,47.7,41.7,32.9,98,90,67,30.25,30.06,6,1,8,0.01
2013-12-31,53.9,43.3,31.3,44.0,37.4,29.6,97,82,43,30.48,30.22,9,2,12,0.00
2014-1-1,49.3,38.9,30.1,39.2,33.9,28.8,97,84,54,30.51,30.26,6,1,8,0.00
2014-1-2,49.7,45.3,40.1,48.9,43.7,35.8,97,94,79,30.26,29.76,12,2,23,0.17